Ortonville, MN

9:44 PM CDT on June 27, 2017 (GMT -0500)
Ortonville Municipal-Martinson

Weather History for KVVV - October, 2013

Change the Weather History Date:

Tuesday, October 15, 2013

  Actual Average (KAQP) Record (KAQP)
Temperature  
Mean Temperature 45 °F -  
Max Temperature 48 °F 56 °F 71 °F (2014)
Min Temperature 42 °F 34 °F 21 °F (2006)
Degree Days  
Heating Degree Days 20    
Moisture  
Dew Point 42 °F    
Average Humidity 88    
Maximum Humidity 93    
Minimum Humidity 81    
Precipitation  
Precipitation 0.73 in - - ()
Sea Level Pressure  
Sea Level Pressure 29.83 in    
Wind  
Wind Speed 16 mph (North)    
Max Wind Speed 26 mph    
Max Gust Speed 32 mph    
Visibility 9 miles    
Events Rain    
Averages and records for this station are not official NWS values.
T = Trace of Precipitation, MM = Missing Value Source: NWS Daily Summary

Daily Weather History Graph

Daily Weather History Graph

Search for Another Location

Airport or City:

Trip Planner

Search our weather history database for the weather conditions in past years. The results will help you decide how hot, cold, wet, or windy it might be!

Date:

Astronomy

Oct. 15, 2013 Rise Set
Actual Time 7:42 AM CDT 6:39 PM CDT
Civil Twilight 7:12 AM CDT 7:09 PM CDT
Nautical Twilight 6:38 AM CDT 7:43 PM CDT
Astronomical Twilight 6:03 AM CDT 8:17 PM CDT
Moon 4:53 PM CDT (10/15) 3:56 AM CDT (10/15)
Length of Visible Light 11h 57m
Length of Day
10h 57m
Waxing Gibbous, 88% of the Moon is Illuminated
Oct 15
Waxing Gibbous
Oct 18
Full
Oct 26
Last Quarter
Nov 3
New
Nov 9
First Quarter

Hourly Weather History & Observations

Time (CDT) Temp. Windchill Dew Point Humidity Pressure Visibility Wind Dir Wind Speed Gust Speed Precip Events Conditions
12:14 AM 48.2 °F - 44.6 °F 87% 29.79 in 7.0 mi East 16.1 mph - 0.04 in Rain Rain
12:33 AM 48.2 °F - 44.6 °F 87% 29.78 in 10.0 mi East 15.0 mph 20.7 mph 0.08 in Rain Light Rain
12:54 AM 48.2 °F - 44.6 °F 87% 29.77 in 7.0 mi East 15.0 mph 19.6 mph 0.10 in Rain Rain
1:14 AM 48.2 °F - 44.6 °F 87% 29.76 in 4.0 mi East 16.1 mph 23.0 mph 0.04 in Rain Rain
1:33 AM 48.2 °F - 44.6 °F 87% 29.76 in 5.0 mi East 13.8 mph 19.6 mph N/A Rain Light Rain
1:54 AM 48.2 °F - 44.6 °F 87% 29.75 in 5.0 mi ENE 11.5 mph 16.1 mph N/A Rain Rain
2:14 AM 48.2 °F - 44.6 °F 87% 29.74 in 7.0 mi Calm Calm - 0.06 in Rain Rain
2:33 AM 48.2 °F - 46.4 °F 93% 29.74 in 7.0 mi ENE 10.4 mph 18.4 mph 0.14 in Rain Heavy Rain
2:54 AM 48.2 °F - 44.6 °F 87% 29.73 in 10.0 mi ENE 11.5 mph 17.3 mph 0.19 in Rain Light Rain
3:14 AM 48.2 °F - 46.4 °F 93% 29.72 in 5.0 mi ENE 11.5 mph 17.3 mph 0.02 in Rain Light Rain
3:30 AM 46.4 °F 40.4 °F 44.6 °F 93% 29.71 in 5.0 mi ENE 13.8 mph 19.6 mph 0.02 in   Drizzle
3:53 AM 46.4 °F 40.1 °F 44.6 °F 93% 29.71 in 5.0 mi NE 15.0 mph 20.7 mph 0.03 in Rain Rain
4:14 AM 46.4 °F 40.1 °F 44.6 °F 93% 29.70 in 5.0 mi ENE 15.0 mph 24.2 mph 0.01 in Rain Light Rain
4:34 AM 46.4 °F 39.8 °F 44.6 °F 93% 29.70 in 7.0 mi NE 16.1 mph 23.0 mph 0.03 in Rain Light Rain
4:53 AM 46.4 °F 40.4 °F 44.6 °F 93% 29.69 in 7.0 mi NE 13.8 mph 21.9 mph 0.03 in Rain Light Rain
5:14 AM 46.4 °F 39.2 °F 44.6 °F 93% 29.69 in 7.0 mi NE 18.4 mph 28.8 mph N/A   Light Drizzle
5:34 AM 46.4 °F 39.5 °F 44.6 °F 93% 29.69 in 7.0 mi NE 17.3 mph 25.3 mph N/A Rain Light Rain
5:54 AM 46.4 °F 39.8 °F 44.6 °F 93% 29.69 in 7.0 mi NE 16.1 mph 21.9 mph 0.01 in Rain Light Rain
6:14 AM 46.4 °F 39.5 °F 44.6 °F 93% 29.69 in 10.0 mi NE 17.3 mph 25.3 mph 0.02 in Rain Light Rain
6:34 AM 46.4 °F 39.5 °F 44.6 °F 93% 29.69 in 10.0 mi NE 17.3 mph 25.3 mph 0.03 in Rain Light Rain
6:53 AM 46.4 °F 39.2 °F 44.6 °F 93% 29.70 in 10.0 mi NNE 18.4 mph 26.5 mph 0.05 in Rain Light Rain
7:14 AM 46.4 °F 38.7 °F 42.8 °F 87% 29.70 in 10.0 mi NNE 20.7 mph 26.5 mph 0.01 in Rain Heavy Rain
7:34 AM 46.4 °F 38.7 °F 42.8 °F 87% 29.70 in 10.0 mi NE 20.7 mph 25.3 mph 0.04 in Rain Rain
7:54 AM 46.4 °F 39.2 °F 42.8 °F 87% 29.71 in 10.0 mi NNE 18.4 mph 27.6 mph 0.07 in Rain Rain
8:14 AM 46.4 °F 40.1 °F 42.8 °F 87% 29.72 in 10.0 mi NNE 15.0 mph 20.7 mph 0.03 in Rain Rain
8:34 AM 46.4 °F 39.8 °F 42.8 °F 87% 29.73 in 10.0 mi NNE 16.1 mph 21.9 mph 0.05 in Rain Rain
8:54 AM 46.4 °F 40.1 °F 42.8 °F 87% 29.74 in 10.0 mi North 15.0 mph 20.7 mph 0.08 in Rain Rain
9:14 AM 44.6 °F 37.2 °F 42.8 °F 93% 29.75 in 10.0 mi North 17.3 mph 23.0 mph 0.03 in Rain Rain
9:34 AM 44.6 °F 37.4 °F 42.8 °F 93% 29.76 in 10.0 mi North 16.1 mph 23.0 mph 0.04 in Rain Light Rain
9:54 AM 44.6 °F 36.9 °F 42.8 °F 93% 29.77 in 10.0 mi North 18.4 mph 23.0 mph 0.05 in Rain Rain
10:14 AM 44.6 °F 36.4 °F 42.8 °F 93% 29.78 in 10.0 mi North 20.7 mph 26.5 mph 0.02 in Rain Light Rain
10:33 AM 44.6 °F 36.6 °F 42.8 °F 93% 29.79 in 10.0 mi North 19.6 mph 26.5 mph 0.03 in Rain Light Rain
10:54 AM 44.6 °F 36.4 °F 41.0 °F 87% 29.80 in 10.0 mi North 20.7 mph 28.8 mph 0.04 in Rain Light Rain
11:14 AM 44.6 °F 35.9 °F 41.0 °F 87% 29.81 in 10.0 mi North 23.0 mph 29.9 mph 0.01 in Rain Light Rain
11:33 AM 44.6 °F 36.1 °F 41.0 °F 87% 29.81 in 10.0 mi North 21.9 mph 28.8 mph 0.01 in Rain Light Rain
11:54 AM 44.6 °F 37.2 °F 41.0 °F 87% 29.82 in 7.0 mi North 17.3 mph 27.6 mph 0.01 in Rain Light Rain
12:14 PM 44.6 °F 36.4 °F 41.0 °F 87% 29.83 in 10.0 mi North 20.7 mph 29.9 mph N/A Rain Light Rain
12:33 PM 44.6 °F 36.1 °F 41.0 °F 87% 29.83 in 10.0 mi North 21.9 mph 28.8 mph N/A   Light Drizzle
12:54 PM 44.6 °F 36.1 °F 41.0 °F 87% 29.84 in 7.0 mi North 21.9 mph 32.2 mph N/A   Light Drizzle
1:14 PM 44.6 °F 36.1 °F 41.0 °F 87% 29.84 in 10.0 mi North 21.9 mph 27.6 mph N/A   Light Drizzle
1:33 PM 44.6 °F 36.1 °F 41.0 °F 87% 29.84 in 10.0 mi North 21.9 mph 28.8 mph N/A Rain Light Rain
1:54 PM 44.6 °F 35.3 °F 41.0 °F 87% 29.84 in 10.0 mi North 26.5 mph 32.2 mph N/A   Light Drizzle
2:14 PM 44.6 °F 36.4 °F 41.0 °F 87% 29.85 in 10.0 mi North 20.7 mph 28.8 mph N/A   Light Drizzle
2:34 PM 44.6 °F 36.4 °F 41.0 °F 87% 29.86 in 10.0 mi North 20.7 mph 32.2 mph N/A   Light Drizzle
2:54 PM 44.6 °F 35.3 °F 41.0 °F 87% 29.86 in 10.0 mi North 26.5 mph 32.2 mph N/A   Light Drizzle
3:14 PM 44.6 °F 36.6 °F 39.2 °F 81% 29.87 in 10.0 mi North 19.6 mph 31.1 mph N/A   Light Drizzle
3:34 PM 44.6 °F 36.9 °F 41.0 °F 87% 29.88 in 10.0 mi North 18.4 mph 32.2 mph N/A Rain Light Rain
3:54 PM 44.6 °F 36.6 °F 41.0 °F 87% 29.88 in 10.0 mi North 19.6 mph 27.6 mph 0.01 in Rain Light Rain
4:13 PM 42.8 °F 33.5 °F 39.2 °F 87% 29.89 in 7.0 mi North 23.0 mph 31.1 mph 0.01 in Rain Light Rain
4:34 PM 42.8 °F 34.0 °F 39.2 °F 87% 29.89 in 4.0 mi NNW 20.7 mph 28.8 mph 0.01 in Rain Light Rain
4:53 PM 42.8 °F 34.0 °F 39.2 °F 87% 29.90 in 7.0 mi North 20.7 mph 27.6 mph 0.01 in Rain Light Rain
5:14 PM 42.8 °F 34.5 °F 39.2 °F 87% 29.90 in 5.0 mi NNW 18.4 mph 26.5 mph 0.01 in Rain Rain
5:34 PM 42.8 °F 34.3 °F 39.2 °F 87% 29.91 in 7.0 mi NNW 19.6 mph 29.9 mph 0.01 in Rain Light Rain
5:53 PM 42.8 °F 34.3 °F 39.2 °F 87% 29.92 in 5.0 mi North 19.6 mph 27.6 mph 0.01 in Rain Light Rain
6:14 PM 42.8 °F 35.4 °F 39.2 °F 87% 29.92 in 10.0 mi NNW 15.0 mph 25.3 mph N/A Rain Light Rain
6:34 PM 42.8 °F 34.5 °F 39.2 °F 87% 29.92 in 5.0 mi NNW 18.4 mph 27.6 mph N/A Rain Light Rain
6:53 PM 42.8 °F 35.8 °F 39.2 °F 87% 29.93 in 5.0 mi NNW 13.8 mph 29.9 mph N/A Rain Light Rain
7:14 PM 42.8 °F 34.3 °F 39.2 °F 87% 29.94 in 10.0 mi NNW 19.6 mph 27.6 mph N/A   Overcast
7:34 PM 42.8 °F 34.0 °F 39.2 °F 87% 29.95 in 10.0 mi NNW 20.7 mph 26.5 mph N/A   Overcast
7:53 PM 42.8 °F 34.8 °F 39.2 °F 87% 29.96 in 10.0 mi NNW 17.3 mph 27.6 mph N/A   Overcast
8:14 PM 42.8 °F 35.4 °F 39.2 °F 87% 29.97 in 10.0 mi NNW 15.0 mph 24.2 mph N/A   Overcast
8:34 PM 42.8 °F 35.1 °F 39.2 °F 87% 29.97 in 10.0 mi NNW 16.1 mph 24.2 mph N/A   Overcast
8:54 PM 42.8 °F 35.1 °F 39.2 °F 87% 29.97 in 10.0 mi NNW 16.1 mph 20.7 mph N/A   Overcast
9:14 PM 42.8 °F 34.8 °F 39.2 °F 87% 29.98 in 10.0 mi NNW 17.3 mph 23.0 mph N/A   Overcast
9:34 PM 42.8 °F 34.5 °F 37.4 °F 81% 29.98 in 10.0 mi North 18.4 mph 25.3 mph N/A   Overcast
9:53 PM 42.8 °F 34.8 °F 37.4 °F 81% 29.98 in 10.0 mi NNW 17.3 mph 25.3 mph N/A   Overcast
10:14 PM 42.8 °F 35.8 °F 37.4 °F 81% 29.99 in 10.0 mi NNW 13.8 mph 23.0 mph N/A   Overcast
10:34 PM 42.8 °F 35.1 °F 37.4 °F 81% 29.99 in 10.0 mi NNW 16.1 mph 23.0 mph N/A   Overcast
10:53 PM 42.8 °F 35.1 °F 37.4 °F 81% 29.99 in 10.0 mi NNW 16.1 mph 21.9 mph N/A   Overcast
11:14 PM 42.8 °F 35.1 °F 37.4 °F 81% 30.00 in 10.0 mi NNW 16.1 mph 21.9 mph N/A   Overcast
11:34 PM 42.8 °F 35.8 °F 37.4 °F 81% 30.00 in 10.0 mi NNW 13.8 mph 20.7 mph N/A   Overcast
11:53 PM 42.8 °F 35.8 °F 37.4 °F 81% 29.99 in 10.0 mi NNW 13.8 mph 21.9 mph N/A   Overcast